Temp
61 61 60 60 60 60 60 60 60 61 61 61 60 60 61 61 60 68 68 78 79 74 71 88 87 88 90 88 91 91 75 70 74 78 82 88 85 89 95 89 92 95 95 98 100
61 61 61 60 60 60 60 60 60 60 61 60 60 60 60 60 65 71 80 72 71 72 80 84 82 86 83 85 86 81 74 75 83 85 84 84 86 88 89 87 88 91 96 99 100
60 60 60 60 60 60 60 60 60 60 60 60 60 60 59 62 68 79 76 71 70 72 82 91 90 86 81 85 84 82 75 84 85 84 84 84 84 90 86 81 87 87 92 97 97
60 60 60 60 60 59 59 60 60 60 60 59 60 59 59 67 65 82 73 71 70 79 84 87 86 80 79 78 85 77 83 84 85 84 82 79 85 82 84 86 92 93 93 94 94
59 59 59 59 59 59 59 59 59 59 59 59 59 59 63 69 75 80 71 72 80 81 85 85 82 82 77 81 82 79 82 84 86 85 84 84 80 81 83 89 92 92 92 92 92
59 59 59 59 59 59 59 59 59 59 59 59 59 58 66 66 88 86 85 82 87 87 87 88 85 88 82 80 79 82 81 82 83 84 84 80 80 82 84 88 87 88 88 91 92
58 58 58 59 59 59 59 58 57 58 59 59 60 65 70 75 88 90 88 87 90 89 84 90 89 83 84 78 84 81 75 78 80 82 80 83 75 77 86 88 85 86 87 89 91
58 58 58 58 59 59 59 58 57 58 58 60 60 70 71 89 91 88 89 86 90 91 89 88 89 86 83 84 79 75 75 70 81 81 82 77 69 83 88 84 83 85 87 87 88
58 57 58 58 58 58 58 57 58 59 59 61 62 69 73 75 81 88 89 83 86 87 86 87 86 81 80 73 71 73 67 70 75 82 79 77 72 82 85 83 81 83 86 87 88
58 57 57 57 57 57 57 56 57 59 61 69 72 66 77 77 85 86 89 87 82 82 79 79 79 74 76 73 63 68 68 72 70 78 77 74 74 81 85 84 82 83 85 86 87
57 57 57 57 57 56 58 68 66 64 68 69 71 74 79 86 88 83 86 83 83 78 70 76 71 68 73 75 75 72 70 69 74 78 73 72 73 77 81 82 81 83 84 85 87
57 57 57 56 56 55 63 72 78 80 69 76 75 76 80 84 75 81 87 75 74 68 74 72 66 75 77 75 71 70 67 67 73 76 73 71 70 76 79 80 82 81 82 84 86
56 56 56 56 56 59 72 77 87 84 70 73 76 73 75 78 74 76 81 78 72 69 71 68 73 75 72 70 67 68 66 67 67 72 74 70 67 72 79 82 83 84 84 85 84
56 56 55 56 55 80 76 84 87 84 63 65 70 74 77 77 69 84 84 79 74 69 72 71 77 71 70 68 70 63 73 70 66 64 59 72 56 68 75 77 80 82 83 84 84
55 56 55 54 65 75 79 86 86 78 44 72 71 84 80 73 73 73 84 79 69 71 71 69 70 70 67 69 72 66 73 68 67 64 63 64 61 67 75 72 75 77 79 80 82
55 56 54 63 67 79 84 84 79 59 45 66 73 71 70 74 73 75 75 80 79 70 73 72 78 73 72 73 72 73 68 67 68 65 54 63 62 64 70 69 71 74 76 77 79
55 55 59 76 76 84 84 78 60 54 69 64 67 72 71 68 69 71 67 65 63 57 57 67 69 76 76 67 73 69 62 53 52 52 50 66 61 64 71 71 70 70 73 76 77
54 53 60 79 85 82 78 67 51 61 63 70 69 69 66 70 70 69 66 63 70 67 59 53 53 67 71 66 64 66 63 53 41 46 54 64 54 65 72 73 72 73 72 75 74
52 79 82 83 82 81 71 59 60 62 65 65 67 63 65 67 66 65 65 64 67 65 55 53 52 66 67 69 68 62 58 65 53 55 50 57 63 71 72 70 70 72 72 72 74
65 77 78 81 81 75 67 54 62 67 67 68 59 64 58 61 61 61 58 64 64 67 67 59 49 64 67 67 68 63 68 51 56 38 39 53 55 59 64 65 69 70 70 73 75
66 71 78 82 79 71 61 64 64 69 68 62 62 61 62 62 62 58 55 62 65 63 64 60 54 57 63 59 58 58 57 58 57 51 38 40 52 67 64 66 67 70 72 73 74
71 67 80 82 66 71 65 64 54 66 69 66 66 64 61 62 58 59 58 61 67 66 57 62 55 49 53 65 67 64 59 59 46 45 51 49 50 70 67 70 70 71 73 75 74
68 72 81 77 61 66 65 64 65 64 64 63 62 64 64 56 52 60 60 68 68 64 56 58 52 44 48 56 63 57 60 61 59 56 46 41 49 71 71 71 72 71 73 72 72
68 64 71 75 70 60 60 60 60 66 63 63 62 64 58 55 58 51 56 62 66 65 58 58 54 49 44 47 55 52 57 61 58 47 50 52 56 64 67 67 70 71 71 72 72
70 63 61 63 64 59 59 60 57 57 61 61 57 56 52 47 51 51 55 57 62 60 60 55 46 52 54 56 57 57 58 59 56 57 51 56 57 63 66 68 69 70 71 70 70
62 62 68 64 59 57 51 58 54 53 53 54 49 51 52 47 50 47 51 52 50 57 56 54 45 50 46 55 57 55 59 59 59 59 59 59 58 69 70 70 69 67 68 67 66
69 69 63 55 59 57 60 54 51 52 56 56 52 49 50 52 53 56 58 57 53 50 49 49 47 45 41 51 55 48 56 58 60 62 61 55 62 68 66 65 64 64 64 63 63
MSLP
1018.33 1017.87 1017.45 1017.05 1016.71 1016.45 1016.22 1015.95 1015.71 1015.45 1015.30 1015.11 1014.85 1014.67 1014.50 1014.29 1013.95 1012.83 1010.71 1008.92 1008.75 1009.11 1009.35 1007.47 1007.49 1006.84 1006.37 1005.47 1004.90 1004.57 1003.46 1002.08 1001.58 1000.83 1000.45 1000.91 1001.47 1002.33 1001.78 1002.21 1002.21 1001.95 1001.71 1001.60 1002.49
1018.23 1017.73 1017.32 1016.95 1016.64 1016.31 1016.07 1015.78 1015.54 1015.27 1015.01 1014.89 1014.66 1014.47 1014.35 1014.09 1012.79 1009.90 1008.19 1008.65 1009.13 1009.25 1008.46 1006.72 1006.17 1006.00 1005.43 1004.67 1004.42 1004.02 1002.90 1001.80 1001.87 1001.28 1000.74 1002.14 1002.15 1001.84 1001.59 1001.98 1002.01 1002.03 1002.17 1002.35 1002.44
1018.29 1017.73 1017.30 1016.90 1016.55 1016.21 1015.87 1015.59 1015.36 1015.17 1014.85 1014.72 1014.57 1014.35 1014.20 1013.80 1010.81 1006.48 1006.66 1008.11 1008.97 1009.12 1007.86 1005.86 1005.28 1005.28 1004.57 1003.96 1003.69 1003.44 1002.27 1001.78 1001.56 1001.96 1002.49 1002.29 1002.40 1002.23 1001.97 1002.12 1002.36 1002.11 1001.98 1002.11 1002.26
1018.42 1017.81 1017.32 1016.83 1016.36 1015.98 1015.65 1015.35 1015.12 1014.92 1014.76 1014.59 1014.42 1014.26 1014.04 1012.90 1008.20 1006.74 1007.68 1008.08 1008.78 1008.64 1007.26 1005.45 1004.71 1004.52 1003.62 1003.20 1002.98 1002.81 1002.36 1002.00 1001.78 1002.38 1003.16 1003.16 1002.78 1002.55 1002.53 1002.48 1002.54 1002.62 1002.75 1002.78 1002.65
1018.41 1017.93 1017.37 1016.81 1016.29 1015.77 1015.43 1015.17 1014.93 1014.74 1014.63 1014.53 1014.40 1014.15 1013.60 1010.62 1007.29 1007.54 1008.10 1008.32 1008.22 1007.90 1005.97 1004.83 1004.11 1003.60 1002.98 1002.67 1002.65 1002.68 1002.14 1002.49 1002.45 1002.72 1002.97 1003.09 1002.76 1002.62 1002.37 1002.57 1002.69 1002.92 1002.75 1002.61 1002.49
1018.32 1017.85 1017.39 1016.79 1016.18 1015.63 1015.20 1014.89 1014.66 1014.49 1014.40 1014.37 1014.26 1014.19 1012.32 1008.56 1006.57 1007.37 1007.37 1007.85 1006.66 1006.02 1005.05 1004.28 1003.67 1003.23 1002.71 1002.45 1002.61 1002.55 1002.74 1002.25 1002.55 1002.51 1002.62 1002.71 1002.40 1002.38 1002.26 1002.59 1002.90 1002.91 1002.81 1002.51 1002.17
1018.25 1017.63 1017.19 1016.68 1016.05 1015.48 1014.91 1014.55 1014.32 1014.17 1014.08 1014.04 1014.00 1013.45 1010.36 1006.96 1006.63 1006.75 1006.93 1006.43 1005.94 1005.33 1004.62 1004.21 1003.72 1003.69 1002.72 1002.68 1002.90 1002.85 1002.62 1002.56 1002.23 1002.20 1002.27 1002.41 1001.97 1001.57 1001.62 1001.89 1002.42 1002.53 1002.61 1002.48 1002.24
1018.00 1017.50 1016.88 1016.37 1015.86 1015.25 1014.68 1014.23 1013.98 1013.86 1013.75 1013.71 1013.79 1012.41 1007.98 1006.30 1006.37 1006.46 1006.40 1006.11 1006.00 1005.52 1004.84 1005.05 1004.73 1003.84 1003.10 1002.91 1003.13 1002.85 1002.66 1001.49 1000.71 1001.38 1001.79 1002.88 1001.12 1000.33 1000.93 1001.87 1002.23 1002.34 1002.33 1002.28 1002.49
1017.70 1017.20 1016.61 1016.00 1015.57 1015.03 1014.48 1013.97 1013.51 1013.32 1013.51 1013.44 1013.11 1011.04 1006.39 1007.19 1006.45 1005.91 1005.96 1005.74 1005.91 1005.80 1005.74 1005.54 1005.01 1003.83 1003.67 1003.08 1002.43 1002.07 1000.80 1000.37 999.92 1001.04 1001.59 1001.95 1000.89 1000.49 1001.23 1001.87 1002.01 1001.97 1001.81 1001.72 1001.69
1017.46 1016.71 1016.32 1015.61 1015.14 1014.69 1014.23 1013.71 1013.27 1013.28 1013.34 1012.54 1011.29 1009.69 1006.37 1005.08 1005.15 1005.49 1005.79 1005.61 1005.62 1005.54 1005.53 1005.37 1004.40 1003.56 1002.89 1002.06 1000.58 1000.08 1000.26 1000.07 999.95 1000.39 1001.33 1001.44 1001.02 1000.86 1000.94 1001.06 1001.14 1001.22 1001.18 1001.27 1001.26
1017.04 1016.27 1015.90 1015.15 1014.60 1014.22 1013.80 1012.79 1012.24 1011.32 1010.75 1008.47 1007.55 1006.00 1004.71 1004.50 1005.22 1005.37 1005.56 1005.56 1005.23 1005.13 1004.32 1004.18 1003.25 1002.06 1001.37 1001.37 1001.16 1001.07 1000.82 1000.41 1000.36 1000.90 1001.64 1001.58 1001.33 1000.99 1000.97 1000.83 1000.66 1000.58 1000.60 1000.63 1000.69
1016.65 1015.91 1015.35 1014.70 1014.09 1013.65 1012.89 1009.90 1007.55 1007.37 1006.77 1006.66 1006.45 1005.71 1005.14 1004.65 1004.72 1004.77 1005.38 1005.17 1004.84 1004.23 1003.96 1003.30 1002.57 1001.81 1001.64 1001.93 1002.32 1002.37 1001.89 1001.46 1001.37 1001.54 1001.94 1001.75 1001.28 1001.04 1000.80 1000.44 1000.33 1000.38 1000.48 1000.57 1000.56
1016.18 1015.50 1014.78 1014.10 1013.44 1012.73 1010.41 1008.44 1007.55 1007.13 1005.96 1004.88 1005.22 1005.29 1005.26 1005.34 1004.15 1004.31 1005.03 1004.69 1004.23 1003.86 1003.08 1002.47 1001.54 1002.27 1002.45 1002.55 1002.73 1002.47 1002.11 1001.61 1001.58 1001.74 1002.03 1001.74 1000.69 1000.01 999.59 999.41 999.56 1000.00 1000.49 1000.65 1000.76
1015.59 1014.93 1014.33 1013.43 1013.00 1009.42 1008.18 1007.57 1007.36 1007.29 1005.21 1004.28 1004.35 1004.45 1004.79 1004.86 1004.30 1003.69 1004.49 1004.29 1003.70 1003.24 1002.81 1002.48 1001.98 1002.65 1002.65 1002.34 1002.48 1001.94 1001.75 1002.04 1002.28 1002.35 1001.22 1000.83 999.75 999.46 999.14 998.94 999.29 999.65 1000.02 1000.30 1000.68
1014.86 1014.21 1013.58 1013.52 1011.49 1008.58 1007.96 1007.57 1007.47 1007.46 1004.36 1002.84 1003.53 1004.14 1004.04 1004.13 1003.81 1004.12 1004.21 1003.94 1003.46 1002.99 1002.87 1001.79 1002.06 1002.06 1002.34 1001.94 1002.09 1002.22 1002.31 1002.80 1002.79 1002.28 1001.66 1000.76 999.63 998.61 998.54 998.60 999.13 1000.04 1000.79 1001.31 1001.39
1014.29 1013.48 1012.60 1011.92 1011.37 1008.90 1008.10 1007.75 1007.48 1005.87 1003.02 1002.23 1002.97 1003.15 1003.64 1003.56 1003.61 1003.95 1004.13 1004.23 1003.69 1003.49 1002.96 1002.24 1002.27 1002.51 1002.24 1002.33 1002.89 1003.23 1003.22 1002.97 1002.56 1001.87 1000.66 999.68 998.98 998.19 998.35 999.42 1000.44 1001.45 1001.97 1002.35 1002.49
1013.88 1013.05 1012.22 1010.25 1008.65 1008.32 1008.09 1007.06 1005.55 1003.37 1002.87 1002.31 1002.15 1002.64 1002.57 1002.88 1003.29 1003.65 1003.86 1004.08 1003.68 1003.60 1003.28 1002.66 1002.20 1002.04 1002.39 1002.77 1002.63 1003.00 1003.11 1002.05 1001.25 1000.44 999.66 999.19 999.30 998.93 999.51 1000.67 1001.98 1002.70 1002.96 1002.96 1002.97
1013.42 1012.69 1011.07 1009.57 1008.78 1008.58 1007.81 1006.13 1004.28 1003.41 1002.82 1003.21 1002.82 1002.53 1002.11 1002.22 1002.71 1003.18 1003.62 1003.49 1003.40 1003.43 1003.59 1003.28 1002.59 1002.31 1002.65 1003.23 1002.99 1002.58 1002.67 1002.48 1002.14 1001.48 1000.29 1000.00 999.60 999.23 1000.42 1001.36 1002.47 1002.90 1003.38 1003.41 1003.54
1012.83 1010.11 1008.84 1008.77 1008.79 1008.47 1007.23 1004.89 1003.70 1003.99 1004.40 1003.75 1003.13 1002.65 1002.15 1002.83 1003.40 1003.76 1003.59 1003.63 1003.91 1004.56 1004.79 1004.45 1004.23 1004.26 1004.35 1004.10 1004.18 1003.18 1003.43 1003.78 1003.88 1003.80 1002.94 1001.65 1000.14 999.58 1000.22 1001.26 1002.42 1002.68 1002.82 1003.30 1003.44
1013.01 1009.52 1008.53 1008.75 1008.67 1008.22 1006.44 1005.14 1004.83 1005.39 1005.16 1004.37 1003.58 1003.03 1002.67 1003.19 1003.71 1003.89 1004.47 1004.73 1004.67 1005.27 1005.74 1005.72 1005.38 1004.45 1004.19 1004.98 1004.61 1004.77 1004.28 1004.55 1004.45 1004.48 1003.13 1001.18 1000.42 999.94 1000.55 1001.43 1001.92 1001.96 1002.52 1002.72 1002.64
1012.35 1008.73 1008.41 1008.54 1008.39 1007.24 1005.49 1004.97 1005.54 1005.91 1006.08 1005.47 1004.54 1004.24 1004.02 1003.69 1003.92 1004.63 1005.43 1005.52 1005.87 1006.38 1006.90 1007.13 1006.92 1005.15 1004.99 1004.71 1004.30 1004.67 1004.68 1005.03 1005.27 1005.39 1004.82 1003.32 1001.39 1001.05 1001.65 1002.16 1002.19 1002.22 1002.20 1002.14 1002.22
1010.78 1007.87 1008.16 1008.18 1007.37 1006.19 1005.46 1006.05 1006.90 1006.19 1006.37 1006.08 1005.87 1005.50 1005.42 1005.35 1005.08 1005.04 1004.78 1005.40 1006.27 1006.52 1006.73 1007.01 1007.15 1005.86 1005.28 1004.74 1004.59 1004.53 1004.51 1004.48 1004.87 1005.07 1004.50 1003.81 1002.48 1001.94 1002.31 1002.07 1002.12 1001.67 1001.64 1001.83 1002.08
1010.70 1008.31 1008.14 1007.89 1006.35 1005.71 1006.42 1006.64 1006.72 1006.67 1006.71 1006.61 1006.40 1006.44 1006.42 1006.83 1006.62 1005.77 1005.58 1005.66 1006.44 1006.89 1007.64 1007.99 1007.35 1006.47 1005.69 1005.25 1004.87 1005.00 1004.74 1004.79 1004.79 1005.05 1004.71 1003.97 1002.55 1001.68 1001.30 1001.12 1001.17 1001.21 1001.28 1001.79 1002.14
1011.03 1007.98 1007.50 1007.66 1007.96 1007.80 1007.16 1006.93 1006.78 1007.29 1007.78 1007.93 1007.76 1007.59 1007.73 1007.56 1007.59 1007.66 1006.86 1006.81 1007.06 1007.48 1008.63 1009.15 1007.94 1007.08 1005.89 1005.47 1005.38 1004.67 1004.45 1004.25 1004.09 1004.07 1003.68 1002.53 1001.47 1000.77 1000.62 1000.67 1000.90 1001.06 1001.48 1001.80 1001.74
1011.21 1009.49 1009.87 1007.44 1007.67 1008.70 1008.59 1007.95 1007.81 1007.75 1008.81 1009.09 1008.82 1009.02 1009.41 1009.14 1008.62 1008.46 1008.31 1008.29 1008.14 1008.32 1008.87 1009.51 1008.64 1007.70 1006.78 1005.91 1005.11 1004.22 1003.61 1003.48 1003.37 1003.11 1002.65 1001.87 1001.15 1000.85 1000.73 1000.72 1000.89 1001.20 1001.48 1001.71 1001.84
1012.05 1010.78 1009.76 1009.13 1009.58 1009.27 1009.16 1008.49 1009.05 1009.59 1010.23 1009.66 1010.41 1010.70 1010.81 1010.67 1010.27 1010.09 1009.76 1009.61 1009.33 1009.03 1009.18 1009.85 1009.17 1008.48 1007.63 1006.32 1005.10 1003.83 1003.43 1003.25 1002.89 1002.58 1002.23 1001.83 1001.13 1000.88 1000.75 1001.40 1001.31 1001.89 1002.31 1002.43 1002.59
1012.78 1012.38 1011.52 1009.68 1009.22 1009.57 1009.09 1010.06 1010.53 1011.29 1010.97 1010.94 1011.43 1011.54 1011.40 1011.42 1011.75 1011.12 1010.81 1010.80 1010.88 1010.58 1010.30 1010.26 1009.64 1008.81 1007.35 1006.42 1004.55 1003.32 1002.93 1002.42 1002.03 1001.96 1001.78 1001.27 1001.02 1001.35 1001.34 1001.88 1002.55 1002.96 1003.20 1003.20 1003.18
Wind_Speed
17 16 15 15 14 13 13 13 11 11 10 10 10 11 12 14 16 17 18 9 10 7 9 13 18 16 16 17 18 13 15 19 23 22 20 8 9 12 14 10 8 11 11 10 6
17 18 16 16 15 14 13 13 12 11 10 11 9 10 11 12 18 21 17 9 5 9 13 15 19 18 16 19 14 14 15 22 21 18 10 13 18 16 11 15 15 14 13 13 11
18 17 17 16 15 14 14 12 12 11 9 8 9 9 10 14 15 4 11 14 12 15 21 15 16 19 20 16 18 18 19 19 18 4 8 13 14 14 13 17 17 16 14 13 10
18 18 18 17 15 15 14 13 12 11 10 8 8 9 9 13 5 11 7 13 14 16 21 12 15 19 18 18 15 17 20 18 10 6 12 17 16 15 16 16 15 13 13 15 16
18 18 18 18 16 15 14 13 12 11 10 8 7 8 10 9 10 10 12 10 15 18 17 15 16 18 17 14 17 16 14 13 13 12 12 13 15 15 16 14 9 12 15 14 14
18 18 18 18 17 17 14 13 11 11 10 10 8 7 10 12 6 11 9 13 15 15 14 14 12 16 10 9 12 14 17 11 12 14 13 15 15 15 15 8 12 13 13 14 13
19 18 18 18 18 19 15 12 10 10 10 10 8 11 12 10 2 9 10 13 9 11 9 9 5 8 7 11 10 7 12 13 14 13 12 11 15 19 18 15 13 12 11 12 13
19 19 18 19 18 18 18 14 12 12 10 9 8 13 9 5 5 9 10 5 8 9 8 4 7 12 11 4 7 14 13 14 17 17 10 6 13 7 6 2 10 11 12 12 13
20 19 20 20 20 20 16 15 13 11 9 7 9 13 9 7 10 11 10 9 10 7 1 5 10 10 8 11 13 12 13 16 9 11 9 13 11 3 2 9 13 13 13 13 13
20 21 20 20 20 17 17 16 5 10 7 8 11 9 8 11 11 10 9 6 11 10 10 12 9 10 12 13 12 10 17 13 7 6 11 13 15 13 13 14 13 13 13 12 13
21 21 20 21 20 17 11 6 8 8 10 13 0 9 7 8 10 11 11 12 13 10 13 13 11 13 15 13 15 10 14 11 8 3 9 14 16 16 14 15 16 16 14 14 13
22 22 22 22 21 20 8 9 8 8 10 19 9 12 4 2 11 13 13 12 13 14 13 9 13 14 7 6 7 11 13 14 12 10 10 14 17 16 17 19 18 17 15 16 15
22 22 22 21 22 8 11 12 8 6 9 9 6 10 11 10 10 14 16 16 13 14 14 14 3 5 6 10 12 14 14 13 12 10 12 18 21 22 16 12 10 10 14 13 14
24 22 21 21 10 4 7 6 8 5 9 11 11 6 10 11 7 9 15 14 9 14 14 12 14 8 9 10 11 13 7 9 8 13 14 14 15 17 17 15 13 13 10 9 11
26 24 22 8 11 5 7 5 8 4 4 11 9 9 13 16 11 11 12 13 15 11 8 14 9 10 12 11 5 10 13 8 14 16 18 19 14 14 15 13 5 11 13 15 16
26 25 17 6 7 9 7 7 5 9 2 8 7 11 15 13 6 10 11 11 6 14 11 19 2 6 10 7 6 10 13 16 18 16 16 20 18 10 4 12 11 12 15 10 14
28 25 13 7 6 6 8 7 9 7 1 6 11 13 17 13 9 14 14 15 13 11 13 18 20 18 14 11 13 11 12 12 14 13 14 3 8 9 15 8 6 8 11 11 11
30 25 9 5 6 7 8 8 7 7 6 5 5 4 11 7 11 8 10 12 15 11 10 11 11 8 3 7 13 16 11 9 13 13 16 20 9 2 6 3 5 5 4 11 11
34 6 3 4 5 5 10 8 7 7 7 8 8 10 12 10 6 7 11 10 9 2 8 4 10 1 5 6 7 7 8 5 10 12 14 14 16 12 9 6 5 6 6 7 12
9 6 5 6 3 7 8 4 3 3 7 7 12 5 8 7 7 5 6 5 7 3 5 6 12 15 8 6 10 9 12 7 6 5 8 7 11 7 7 5 10 9 7 11 10
7 7 7 5 5 8 7 6 3 4 8 7 11 11 13 13 7 9 7 4 6 8 7 10 12 14 7 10 14 8 11 9 8 7 6 8 6 9 11 12 12 13 13 16 15
6 6 5 4 8 2 5 4 2 8 5 7 8 12 11 13 14 15 13 9 1 4 7 9 7 13 14 14 6 9 14 11 10 10 10 13 13 12 1 10 12 13 13 15 13
6 4 3 5 6 3 3 7 5 8 7 5 10 8 8 12 10 11 11 10 10 10 2 3 8 11 10 16 12 11 14 12 11 11 15 14 12 14 14 15 14 15 14 14 14
7 4 5 1 2 6 5 8 5 6 7 5 11 13 12 13 9 8 8 3 4 8 7 5 11 13 9 2 6 10 10 14 14 11 15 17 21 17 16 16 17 16 15 17 18
3 4 4 2 5 6 5 6 7 6 4 5 6 7 8 5 9 13 11 14 9 6 6 5 14 16 15 19 18 18 16 15 19 18 19 19 22 21 19 18 15 14 16 20 22
7 6 3 5 5 5 4 3 5 2 4 1 3 11 6 10 8 14 13 9 10 7 10 7 11 13 15 18 20 18 18 19 21 20 21 22 23 20 11 16 17 20 21 22 24
3 2 7 3 5 6 1 1 1 4 6 3 5 5 9 9 10 14 13 12 12 8 6 8 7 7 14 16 17 12 17 17 20 18 15 15 16 17 16 18 19 22 24 25 25
Wind_Direction
350 346 341 337 333 326 320 316 312 306 303 299 298 297 296 297 291 256 252 249 227 264 249 230 204 207 225 223 224 229 238 236 245 243 252 297 235 247 261 294 263 273 286 317 6
353 352 348 342 333 328 322 317 312 308 305 300 296 301 301 304 287 270 253 134 133 219 228 197 193 196 212 216 199 220 228 233 236 253 241 246 268 264 236 230 253 251 249 260 263
352 350 348 345 337 327 321 316 312 304 301 298 297 301 303 298 273 58 139 152 185 231 248 211 194 196 214 213 201 214 241 223 244 313 277 267 245 266 271 260 263 274 281 286 284
347 349 347 341 339 331 320 313 311 307 304 301 296 294 295 275 320 45 153 162 194 223 240 213 196 198 216 210 208 234 224 256 266 225 229 252 266 257 254 268 282 277 275 271 264
342 343 344 340 334 333 321 311 308 302 300 296 286 286 268 227 258 90 132 155 191 207 217 199 194 203 215 207 212 218 241 230 250 254 244 255 257 260 259 262 262 272 270 260 258
336 338 339 339 336 331 322 307 297 295 287 283 273 281 249 256 69 130 149 166 191 206 204 204 200 215 241 228 204 202 242 237 235 241 239 251 260 253 247 224 259 244 256 265 261
333 333 334 335 335 331 323 305 295 284 280 272 266 254 262 259 313 160 176 197 192 224 201 225 262 187 226 208 222 231 236 229 238 230 237 249 267 256 244 239 245 261 263 266 272
331 330 329 331 331 329 323 309 291 277 264 263 256 257 263 109 207 188 197 198 189 219 236 156 252 238 230 100 195 230 228 247 215 210 220 208 265 261 127 232 246 243 248 243 260
328 328 324 326 328 326 326 312 296 250 234 228 239 229 253 128 204 189 206 167 181 173 230 180 231 227 206 214 214 204 244 212 182 181 238 200 274 289 143 238 261 266 262 259 257
324 322 322 319 321 317 318 300 145 168 208 210 267 264 243 208 173 166 194 227 187 184 187 214 222 220 218 216 233 238 206 250 246 177 199 252 257 260 269 263 265 272 270 267 266
321 319 320 315 317 318 297 201 201 191 204 236 189 272 115 99 133 187 181 207 209 208 225 200 226 220 236 222 274 329 299 299 285 252 284 274 274 278 280 276 269 267 273 272 263
317 315 316 314 314 320 251 243 13 347 293 210 255 260 307 168 189 182 183 204 204 218 217 203 235 256 252 293 266 255 259 258 255 253 261 272 272 273 272 270 270 270 275 275 276
314 314 313 313 314 271 233 247 326 324 266 142 194 217 203 221 215 170 199 213 197 227 215 247 45 49 265 222 240 235 257 266 276 303 287 267 258 247 246 258 250 238 247 262 267
312 313 313 318 289 300 246 209 252 323 264 137 178 158 187 203 238 194 198 206 229 242 230 238 247 186 211 240 220 259 244 288 275 269 276 321 294 284 266 252 247 249 272 291 298
316 316 314 287 319 243 38 316 319 237 250 139 117 118 168 198 122 195 196 228 254 221 262 225 214 213 240 244 260 278 322 288 279 279 279 270 263 271 278 262 281 0 341 333 309
319 324 325 176 212 282 298 305 246 232 183 125 133 161 173 209 186 153 199 235 266 279 227 273 253 260 276 317 297 302 286 269 267 265 260 262 257 266 304 13 359 349 326 319 327
320 323 303 302 16 334 307 243 237 274 116 149 150 180 188 181 167 172 187 202 233 210 236 239 238 234 218 263 259 222 269 268 257 238 247 24 319 302 320 46 6 319 315 320 322
318 316 178 278 295 308 274 246 265 31 10 29 293 229 226 163 223 189 222 242 223 272 285 295 261 324 103 265 294 293 292 273 291 288 303 330 300 128 118 97 153 302 350 321 324
311 221 227 35 316 292 270 244 20 12 9 322 298 257 212 199 282 200 253 251 250 158 249 272 260 87 268 287 263 332 237 318 298 290 267 256 250 222 126 199 153 245 328 323 303
305 275 74 327 307 272 262 310 332 3 322 301 286 342 298 242 207 235 250 297 244 259 282 266 280 260 219 253 246 266 315 271 230 261 279 286 325 286 12 8 303 324 317 281 301
262 254 68 320 267 245 272 38 321 64 331 330 332 315 306 294 240 237 228 225 226 243 246 250 250 270 251 221 254 173 236 222 268 229 240 292 271 21 6 350 332 323 300 305 322
277 257 57 301 248 187 289 39 48 276 290 280 281 282 290 298 297 285 265 219 233 280 262 273 266 254 255 277 328 308 295 266 214 241 235 245 268 281 257 252 257 285 306 316 313
290 304 99 272 274 197 90 273 240 289 315 307 303 298 299 300 303 277 288 272 237 227 260 261 237 249 256 238 210 248 244 241 258 261 269 277 277 281 287 282 308 308 316 327 309
278 259 149 208 36 309 334 274 272 124 291 326 307 303 305 298 292 279 299 327 231 222 90 298 259 258 260 177 216 234 239 256 247 245 252 249 266 291 302 315 311 304 319 301 296
268 80 6 296 114 319 284 289 280 286 8 326 287 355 360 282 268 261 275 291 262 161 229 220 264 263 275 277 279 272 269 256 248 256 264 279 289 300 303 303 310 316 316 318 314
313 328 164 269 268 279 145 104 306 8 285 244 290 331 308 280 303 304 303 315 276 287 245 214 261 270 267 267 268 268 265 261 264 265 268 275 279 277 323 314 329 334 319 308 311
82 216 273 119 189 258 6 0 110 278 279 284 315 295 295 295 299 292 300 277 260 290 280 256 247 250 258 261 266 268 261 256 243 252 271 284 312 329 320 337 329 319 314 308 302